Latest Coastal Weather Observations for Spring Bay

IDT60701

Issued at 1:12 am EST Saturday 1 October 2016 (issued every 10 minutes, with the page automatically refreshed every 10 minutes)

About coastal observations | Map of coastal stations | Coastal observations for TAS | Marine services | Other Formats
Station Details ID: 092133 Name: SPRING BAY NTC AWS Lat: -42.55 Lon: 147.93 Height: 0.0 m
Data from the previous 72 hours. | See also: Recent months for locations in Tasmania
Date/Time
EST
Temp
°C
Wind Pressure Rain since
9am
mm
Weather Cloud Vis
km
Sea
Height
m
Swell
Dir  Spd
kts
Gust
kts
hPa Trend Height
m
Period
s
Dir
01/01:00am 10.2 - - - 993.9 - - - - - - - - -
01/12:30am 10.4 - - - 994.0 - - - - - - - - -
01/12:00am 10.3 - - - 993.9 - - - - - - - - -
 
Date/Time
EST
Temp
°C
Wind Pressure Rain since
9am
mm
Weather Cloud Vis
km
Sea
Height
m
Swell
Dir  Spd
kts
Gust
kts
hPa Trend Height
m
Period
s
Dir
30/11:30pm 10.6 - - - 994.0 - - - - - - - - -
30/11:00pm 10.8 - - - 993.9 - - - - - - - - -
30/10:30pm 11.5 - - - 994.0 - - - - - - - - -
30/10:00pm 11.7 - - - 994.1 - - - - - - - - -
30/09:30pm 11.8 - - - 994.0 - - - - - - - - -
30/09:00pm 11.0 - - - 993.8 - - - - - - - - -
30/08:30pm 11.4 - - - 993.4 - - - - - - - - -
30/08:00pm 12.5 - - - 993.2 - - - - - - - - -
30/07:30pm 12.5 - - - 992.9 - - - - - - - - -
30/07:00pm 12.9 - - - 992.5 - - - - - - - - -
30/06:30pm 12.9 - - - 991.9 - - - - - - - - -
30/06:00pm 13.7 - - - 991.2 - - - - - - - - -
30/05:30pm 14.1 - - - 990.6 - - - - - - - - -
30/05:00pm 14.5 - - - 990.1 - - - - - - - - -
30/04:30pm 14.7 - - - 989.6 - - - - - - - - -
30/04:00pm 15.4 - - - 989.1 - - - - - - - - -
30/03:30pm 15.1 - - - 988.6 - - - - - - - - -
30/03:00pm 14.8 - - - 988.7 - - - - - - - - -
30/02:30pm 14.7 - - - 988.5 - - - - - - - - -
30/02:00pm 14.6 - - - 988.3 - - - - - - - - -
30/01:30pm 13.9 - - - 987.9 - - - - - - - - -
30/01:00pm 13.5 - - - 987.7 - - - - - - - - -
30/12:30pm 13.3 - - - 987.5 - - - - - - - - -
30/12:00pm 12.2 - - - 987.1 - - - - - - - - -
30/11:30am 12.1 - - - 986.6 - - - - - - - - -
30/11:00am 13.3 - - - 985.9 - - - - - - - - -
30/10:30am 13.5 - - - 985.9 - - - - - - - - -
30/10:00am 13.3 - - - 986.5 - - - - - - - - -
30/09:30am 13.5 - - - 987.3 - - - - - - - - -
30/09:00am 13.5 - - - 987.8 - - - - - - - - -
30/08:30am 13.8 - - - 988.1 - - - - - - - - -
30/08:00am 13.4 - - - 987.9 - - - - - - - - -
30/07:30am 13.3 - - - 987.8 - - - - - - - - -
30/07:00am 12.4 - - - 988.2 - - - - - - - - -
30/06:30am 12.4 - - - 989.1 - - - - - - - - -
30/06:00am 12.6 - - - 989.7 - - - - - - - - -
30/05:30am 12.5 - - - 989.8 - - - - - - - - -
30/05:00am 11.8 - - - 990.1 - - - - - - - - -
30/04:30am 12.1 - - - 990.3 - - - - - - - - -
30/04:00am 12.6 - - - 990.4 - - - - - - - - -
30/03:30am 13.2 - - - 990.4 - - - - - - - - -
30/03:00am 12.9 - - - 990.7 - - - - - - - - -
30/02:30am 13.1 - - - 991.3 - - - - - - - - -
30/02:00am 13.3 - - - 991.7 - - - - - - - - -
30/01:30am 13.3 - - - 992.1 - - - - - - - - -
30/01:00am 13.8 - - - 992.4 - - - - - - - - -
30/12:30am 13.0 - - - 992.6 - - - - - - - - -
30/12:00am 13.3 - - - 992.6 - - - - - - - - -
 
Date/Time
EST
Temp
°C
Wind Pressure Rain since
9am
mm
Weather Cloud Vis
km
Sea
Height
m
Swell
Dir  Spd
kts
Gust
kts
hPa Trend Height
m
Period
s
Dir
29/11:30pm 13.4 - - - 992.7 - - - - - - - - -
29/11:00pm 13.1 - - - 993.1 - - - - - - - - -
29/10:30pm 13.3 - - - 993.3 - - - - - - - - -
29/10:00pm 13.4 - - - 993.4 - - - - - - - - -
29/09:30pm 13.3 - - - 993.6 - - - - - - - - -
29/09:00pm 13.2 - - - 993.9 - - - - - - - - -
29/08:30pm 13.6 - - - 994.1 - - - - - - - - -
29/08:00pm 13.7 - - - 994.0 - - - - - - - - -
29/07:30pm 13.6 - - - 993.8 - - - - - - - - -
29/07:00pm 13.4 - - - 993.5 - - - - - - - - -
29/06:30pm 13.3 - - - 993.6 - - - - - - - - -
29/06:00pm 13.0 - - - 994.4 - - - - - - - - -
29/05:30pm 13.0 - - - 994.5 - - - - - - - - -
29/05:00pm 13.5 - - - 994.4 - - - - - - - - -
29/04:30pm 14.0 - - - 994.2 - - - - - - - - -
29/04:00pm 14.1 - - - 994.0 - - - - - - - - -
29/03:30pm 14.0 - - - 993.9 - - - - - - - - -
29/03:00pm 14.1 - - - 994.1 - - - - - - - - -
29/02:30pm 14.2 - - - 994.2 - - - - - - - - -
29/02:00pm 14.2 - - - 994.4 - - - - - - - - -
29/01:30pm 14.2 - - - 994.7 - - - - - - - - -
29/01:00pm 14.3 - - - 994.9 - - - - - - - - -
29/12:30pm 14.3 - - - 995.4 - - - - - - - - -
29/12:00pm 14.5 - - - 995.6 - - - - - - - - -
29/11:30am 14.7 - - - 996.2 - - - - - - - - -
29/11:00am 14.6 - - - 996.5 - - - - - - - - -
29/10:30am 14.9 - - - 996.8 - - - - - - - - -
29/10:00am 14.8 - - - 997.2 - - - - - - - - -
29/09:30am 14.7 - - - 997.6 - - - - - - - - -
29/09:00am 14.7 - - - 997.9 - - - - - - - - -
29/08:30am 14.9 - - - 998.3 - - - - - - - - -
29/08:00am 14.7 - - - 998.3 - - - - - - - - -
29/07:30am 14.5 - - - 998.7 - - - - - - - - -
29/07:00am 14.2 - - - 998.7 - - - - - - - - -
29/06:30am 14.2 - - - 999.4 - - - - - - - - -
29/06:00am 13.9 - - - 999.4 - - - - - - - - -
29/05:30am 13.6 - - - 999.6 - - - - - - - - -
29/05:00am 13.5 - - - 999.8 - - - - - - - - -
29/04:30am 12.0 - - - 1000.2 - - - - - - - - -
29/04:00am 11.1 - - - 1000.8 - - - - - - - - -
29/03:30am 10.6 - - - 1001.2 - - - - - - - - -
29/03:00am 10.3 - - - 1001.8 - - - - - - - - -
29/02:30am 10.6 - - - 1002.2 - - - - - - - - -
29/02:00am 10.4 - - - 1003.1 - - - - - - - - -
29/01:30am 10.5 - - - 1003.6 - - - - - - - - -
29/01:00am 10.5 - - - 1003.9 - - - - - - - - -
29/12:30am 10.8 - - - 1004.0 - - - - - - - - -
29/12:00am 11.2 - - - 1004.2 - - - - - - - - -
 
Date/Time
EST
Temp
°C
Wind Pressure Rain since
9am
mm
Weather Cloud Vis
km
Sea
Height
m
Swell
Dir  Spd
kts
Gust
kts
hPa Trend Height
m
Period
s
Dir
28/11:30pm 11.3 - - - 1004.5 - - - - - - - - -
28/11:00pm 11.9 - - - 1004.8 - - - - - - - - -
28/10:30pm 12.1 - - - 1004.8 - - - - - - - - -
28/10:00pm 11.6 - - - 1004.9 - - - - - - - - -
28/09:30pm 11.2 - - - 1005.0 - - - - - - - - -
28/09:00pm 11.6 - - - 1005.5 - - - - - - - - -
28/08:30pm 12.1 - - - 1005.8 - - - - - - - - -
28/08:00pm 11.9 - - - 1005.9 - - - - - - - - -
28/07:30pm 12.0 - - - 1006.1 - - - - - - - - -
28/07:00pm 11.8 - - - 1005.8 - - - - - - - - -
28/06:30pm 11.6 - - - 1005.7 - - - - - - - - -
28/06:00pm 12.5 - - - 1006.2 - - - - - - - - -
28/05:30pm 13.1 - - - 1006.0 - - - - - - - - -
28/05:00pm 13.0 - - - 1005.8 - - - - - - - - -
28/04:30pm 13.0 - - - 1005.7 - - - - - - - - -
28/04:00pm 13.3 - - - 1006.0 - - - - - - - - -
28/03:30pm 13.3 - - - 1006.3 - - - - - - - - -
28/03:00pm 13.3 - - - 1006.8 - - - - - - - - -
28/02:30pm 13.2 - - - 1007.1 - - - - - - - - -
28/02:00pm 13.3 - - - 1007.3 - - - - - - - - -
28/01:30pm 13.4 - - - 1007.6 - - - - - - - - -
28/01:00pm 14.0 - - - 1008.0 - - - - - - - - -
28/12:30pm 13.4 - - - 1008.3 - - - - - - - - -
28/12:00pm 13.1 - - - 1008.7 - - - - - - - - -
28/11:30am 13.2 - - - 1008.7 - - - - - - - - -

Other Formats:

Comma delimited format used in spreadsheet applications
http://www.bom.gov.au/fwo/IDT60701/IDT60701.95987.axf

JavaScript Object Notation format (JSON) in row-major order
http://www.bom.gov.au/fwo/IDT60701/IDT60701.95987.json